Wind_Speed
17 19 24 29 32 34 36 36 36 37 37 35 33 34 36 34 31 29 28 27 27 26 26 27 26 25 24 24 23 23 22 19 17 17 17 16 17 18 19 19 20 22 26 29 27 25 25 27 30 33 33 31 29 29 30 31 33 34 34 33 31 28 27 28 28 29 30 31 32 32 31 29 28 27 27 28 28 28 27 27 26 26 25 25 24 23 23
16 16 19 24 28 30 34 36 37 38 39 37 35 35 37 36 33 31 30 29 29 29 30 30 29 27 27 26 25 25 24 22 20 19 19 19 20 20 19 20 21 22 26 26 23 22 24 25 26 30 32 32 32 32 32 31 32 34 36 37 35 31 28 28 28 28 29 30 31 32 31 30 29 29 28 27 27 27 27 28 28 27 26 25 25 24 23
16 15 15 19 23 27 30 34 36 38 40 40 38 38 38 38 36 34 33 32 31 31 32 33 32 29 27 27 28 28 27 26 25 23 23 23 22 22 21 20 21 22 23 23 20 20 23 24 24 26 29 31 32 33 33 32 32 34 36 38 39 36 33 31 31 30 29 30 31 32 31 31 32 31 30 29 28 28 28 28 29 28 26 25 25 25 24
15 15 15 16 18 22 25 28 31 37 42 43 42 41 40 40 39 37 36 35 34 33 34 35 35 32 29 27 28 30 30 30 30 30 29 27 26 25 24 22 20 21 22 22 22 22 23 24 24 24 26 29 30 30 33 35 35 36 36 37 40 40 36 33 33 33 31 30 31 31 30 31 32 32 31 31 30 30 29 28 29 29 28 26 25 25 25
15 15 15 16 16 16 18 21 24 31 39 44 44 43 43 42 40 38 38 37 37 36 35 35 37 36 34 31 29 31 32 33 33 32 32 31 29 28 26 24 21 22 24 24 23 24 24 23 23 23 24 26 28 29 32 36 38 38 37 39 41 41 37 34 34 35 35 33 31 30 29 29 31 32 32 33 34 33 31 29 28 28 29 28 25 24 24
16 15 14 15 15 14 14 16 18 24 32 40 44 44 44 43 41 39 40 40 39 38 37 36 37 37 37 36 33 32 33 34 34 33 33 32 31 31 29 27 24 23 24 25 25 24 24 23 23 23 24 25 27 29 32 35 38 38 37 39 42 41 38 35 35 36 37 35 32 30 29 29 32 33 34 35 36 34 32 29 28 28 28 28 26 25 25
16 16 15 15 15 14 14 15 16 19 24 32 39 43 45 44 41 40 41 41 41 40 39 37 37 37 38 38 37 35 35 35 35 34 33 32 32 32 31 30 28 26 24 25 25 25 25 25 24 24 24 25 26 28 30 34 38 40 38 38 40 41 39 37 36 36 37 37 36 33 32 32 34 36 36 36 36 35 32 29 28 28 28 28 27 26 25
17 17 16 15 14 13 15 16 16 17 19 23 30 39 44 44 42 41 41 43 43 42 40 39 37 37 37 38 39 38 37 37 36 35 34 33 32 32 32 31 31 30 27 26 26 26 25 25 26 26 26 26 25 26 28 31 36 40 41 39 39 41 41 38 37 37 38 39 39 37 35 34 34 35 36 34 34 35 34 32 30 30 29 28 27 27 26
16 17 17 15 13 12 14 16 17 17 17 19 23 30 38 43 43 41 41 43 44 43 41 40 38 38 37 38 38 38 38 38 37 37 36 35 33 32 32 32 31 32 31 29 28 27 26 25 26 27 27 26 25 24 25 27 30 36 40 41 39 40 40 39 38 38 39 40 41 39 36 35 34 34 34 35 35 35 35 34 32 32 32 30 28 27 27
15 16 17 16 13 12 13 15 17 16 17 18 20 23 29 36 41 43 42 42 43 44 42 40 40 39 38 37 38 38 37 37 37 38 39 39 37 34 33 33 32 32 33 33 32 30 29 27 27 27 28 27 26 25 24 24 26 29 34 37 37 38 39 39 38 37 37 39 42 40 38 37 37 35 34 35 36 37 36 35 34 33 33 31 29 29 30
14 15 16 15 13 12 11 13 15 16 16 18 19 20 23 27 34 42 45 42 41 42 42 40 40 40 38 38 37 37 37 37 38 39 40 39 38 35 34 33 32 32 33 34 35 34 32 30 29 28 26 24 24 25 24 23 24 24 26 30 32 34 36 37 37 37 37 39 41 41 39 39 39 37 37 36 36 36 37 36 35 34 34 33 32 32 33
13 14 15 15 13 11 11 11 13 15 16 16 17 18 20 22 28 38 46 44 40 40 40 40 40 40 39 38 37 37 37 37 38 39 39 38 36 34 33 31 29 29 30 32 34 34 35 34 32 31 27 22 22 24 24 22 23 22 21 22 25 27 30 31 33 35 36 38 40 40 40 39 38 39 39 39 39 39 38 37 36 34 33 33 33 34 37
13 14 15 15 13 10 10 11 12 14 14 14 15 16 17 19 23 33 44 47 42 39 38 38 38 38 38 38 38 37 37 37 36 35 35 34 33 32 32 30 27 24 25 28 30 32 34 34 33 33 31 27 26 26 25 25 26 25 23 22 21 22 23 23 24 26 28 30 33 35 37 39 39 40 41 41 42 42 41 39 37 33 31 31 31 31 34
13 13 14 15 13 11 10 12 13 13 14 15 16 15 15 17 19 26 38 46 44 40 38 37 36 36 37 38 38 39 38 38 38 37 34 32 31 30 30 28 24 20 20 23 26 29 30 31 32 33 32 30 28 26 26 26 26 25 25 23 21 20 20 21 22 21 20 22 23 25 28 31 33 35 38 40 40 40 39 37 34 31 30 29 27 25 24
12 12 13 14 14 12 11 12 13 14 15 16 16 16 15 15 16 20 30 40 44 41 39 38 37 37 37 38 39 40 40 41 41 41 40 37 35 34 32 29 25 21 21 21 22 24 25 26 28 29 30 30 28 25 23 23 23 23 24 23 20 18 19 20 21 20 20 20 19 18 19 19 18 20 24 29 31 31 31 30 29 28 27 26 24 22 19
11 12 13 13 14 13 11 12 13 14 14 15 15 15 15 14 14 16 22 32 40 42 39 38 39 39 39 40 41 41 42 42 43 43 43 41 40 39 38 37 34 32 30 26 22 20 21 22 23 24 25 27 26 24 23 22 20 20 22 21 19 17 17 17 18 19 19 18 16 16 16 15 13 14 16 18 20 21 21 21 22 23 23 23 24 24 22
10 11 13 13 13 12 11 12 14 14 14 14 15 15 15 15 15 15 18 24 32 38 40 39 40 41 42 42 41 40 40 40 42 43 43 42 40 39 38 39 39 39 37 33 28 23 20 21 22 21 21 22 23 23 24 25 21 18 17 18 18 18 19 19 20 20 19 17 17 17 17 16 17 18 18 17 17 18 18 18 20 21 20 21 23 23 23
9 10 12 13 14 13 11 12 14 15 15 14 14 13 14 15 15 15 16 18 23 30 36 38 39 40 41 40 39 38 37 38 39 41 42 41 40 39 38 36 36 37 36 34 33 30 26 24 23 22 21 21 22 22 24 26 25 22 18 17 17 18 21 24 24 24 23 22 20 20 21 21 20 19 19 18 19 20 21 22 23 23 22 22 23 22 23
9 10 11 12 13 13 12 13 15 16 16 14 13 12 12 13 15 15 15 16 18 22 26 30 32 35 36 37 36 36 36 36 36 37 39 39 37 37 36 33 31 31 31 30 31 32 31 28 27 25 24 23 23 24 25 26 25 23 20 17 16 17 19 22 24 25 26 26 25 25 25 24 22 21 20 20 21 22 24 26 27 27 27 26 27 27 28
9 9 10 11 11 11 12 13 15 16 15 13 12 11 11 12 13 14 15 16 17 19 21 23 25 27 29 30 31 31 31 31 30 31 31 31 31 31 30 28 25 25 26 26 26 28 29 29 28 27 27 26 25 25 25 26 25 23 22 21 20 20 21 22 22 23 25 26 27 27 28 26 25 24 23 23 22 23 25 26 27 28 28 28 29 30 32
10 8 8 9 10 10 11 13 15 15 14 11 11 11 12 12 13 14 15 16 17 18 19 20 21 22 23 24 24 25 25 25 24 24 23 24 25 25 25 23 22 22 22 23 24 24 25 26 27 27 26 27 27 27 27 27 26 24 23 22 22 22 24 25 26 26 26 27 28 29 29 29 27 25 24 23 23 23 24 25 27 28 29 31 31 32 33
9 7 6 7 9 10 10 12 14 15 14 12 12 13 13 13 14 14 14 15 16 17 17 18 18 19 19 20 20 21 21 21 20 20 19 20 21 22 22 21 21 21 21 22 23 23 23 24 25 26 26 25 25 26 27 28 27 26 25 23 22 22 22 24 25 26 27 28 29 29 29 29 28 27 26 26 26 27 27 28 29 30 32 33 34 35 35
10 9 8 7 7 8 9 10 12 14 13 12 13 14 14 14 14 14 14 14 14 14 14 14 16 16 17 17 18 18 19 19 19 18 17 18 18 19 19 19 20 20 20 21 22 22 23 23 23 24 25 26 25 25 26 27 28 27 27 26 25 25 24 25 25 26 26 28 29 29 30 30 31 31 31 31 32 32 33 34 34 35 35 36 37 38 39
10 9 8 8 7 8 8 8 10 12 12 12 12 13 13 13 13 13 13 13 13 12 11 11 12 13 14 15 15 15 15 15 16 16 16 17 17 17 18 18 18 19 19 20 20 21 21 22 22 22 23 24 25 26 26 26 27 28 28 28 28 28 29 29 29 29 30 30 31 32 33 34 35 35 35 36 37 38 38 39 40 40 40 40 40 41 41
10 9 8 8 8 8 8 8 9 11 12 12 12 12 12 12 12 11 12 12 12 12 11 11 11 12 12 12 12 12 12 12 13 14 14 15 15 16 16 17 17 18 18 19 19 19 20 21 21 22 22 23 24 25 26 26 27 28 28 29 30 30 31 32 32 33 34 35 35 36 37 38 39 40 40 41 42 42 43 43 44 45 45 46 45 45 45
12 11 9 9 9 9 8 8 8 9 10 11 11 11 11 12 12 12 11 11 12 12 12 12 12 11 10 10 10 10 10 11 11 12 13 14 14 15 15 16 16 17 18 19 19 20 20 21 21 22 22 23 23 24 25 26 27 28 29 29 30 31 32 33 34 35 36 37 38 39 40 41 42 43 44 45 45 46 47 48 48 49 50 50 50 50 49
13 12 11 10 10 9 8 7 7 8 10 11 11 12 12 12 12 12 11 11 11 12 12 11 11 10 9 9 9 9 10 11 12 13 13 14 15 16 17 18 18 19 19 20 20 21 21 22 23 23 23 24 24 25 25 26 27 28 29 30 31 32 33 34 35 36 37 38 39 40 41 42 43 44 44 45 46 47 48 49 49 50 51 51 52 52 51
14 13 12 11 10 10 9 9 9 11 12 12 12 12 12 13 13 12 11 11 11 10 10 10 9 9 9 9 10 11 11 12 13 14 15 16 17 18 19 21 21 22 22 23 23 23 24 24 25 25 25 26 26 27 27 28 28 29 30 31 32 33 34 34 35 36 37 38 39 40 41 42 43 44 45 45 46 47 48 48 49 49 50 50 51 51 51
14 13 12 11 10 10 11 11 12 13 14 14 13 13 13 14 14 13 12 11 10 10 10 9 9 10 10 11 12 13 13 14 14 15 16 16 18 19 20 22 23 24 24 25 26 26 26 27 28 28 29 29 29 30 30 31 31 31 32 32 33 34 35 35 36 36 37 37 38 39 40 41 42 43 44 45 46 47 47 48 49 49 50 50 50 51 51
14 13 13 13 12 12 12 12 13 15 15 15 15 15 15 15 14 14 13 12 11 11 11 11 11 12 13 13 13 13 13 13 14 14 15 16 17 18 20 21 22 24 25 26 27 28 28 28 29 30 31 31 32 32 33 33 33 34 34 35 35 36 37 37 38 38 38 39 39 39 40 41 41 42 43 44 45 46 47 48 49 49 50 51 51 52 52
15 15 15 14 14 14 14 14 15 16 16 16 15 15 15 15 15 14 14 14 13 13 12 13 13 14 14 13 13 13 12 13 13 14 16 17 18 19 20 21 22 23 25 26 27 28 29 30 31 31 32 32 32 33 33 34 34 35 35 35 36 37 38 38 39 40 41 41 42 42 42 42 43 43 44 44 45 45 46 47 48 49 49 50 51 52 53
17 16 15 15 16 16 16 17 18 18 18 17 16 16 16 16 16 16 16 15 14 14 14 14 14 14 14 13 13 13 14 15 16 17 18 19 20 21 22 23 24 24 25 26 27 28 29 30 31 32 33 34 34 35 35 36 36 37 37 37 37 38 38 39 39 40 41 42 43 44 45 45 45 46 46 46 47 47 47 48 48 49 49 50 51 52 53
18 17 16 16 16 17 17 18 19 19 18 18 18 18 18 18 18 17 17 16 16 15 15 15 14 14 14 15 15 16 17 18 19 19 20 21 22 23 24 24 25 26 27 28 28 29 30 31 32 33 34 34 35 36 37 38 38 39 40 40 41 41 41 41 42 42 42 43 44 44 45 46 47 47 48 48 49 49 49 50 50 51 51 51 52 53 53
19 18 17 16 16 16 17 18 19 19 20 20 20 20 19 19 19 18 18 18 17 17 16 16 16 16 16 17 18 19 20 21 21 22 23 23 24 25 26 26 27 27 28 29 29 30 31 32 33 34 35 36 36 37 38 38 39 40 41 42 43 43 44 45 45 46 46 46 47 47 47 48 48 49 49 50 50 51 51 51 52 52 52 53 54 55 55
20 19 18 17 17 17 17 18 18 19 20 20 20 20 20 20 19 19 19 19 18 18 17 17 18 19 19 20 21 22 23 23 24 24 25 26 27 27 28 28 29 29 29 30 30 31 32 33 34 35 36 37 38 39 39 40 40 41 42 43 44 45 45 46 47 47 48 49 49 49 50 50 51 51 52 52 53 53 54 54 54 54 54 54 55 55 56
21 20 19 18 17 17 17 17 18 18 18 18 19 19 19 19 19 19 20 19 19 19 19 20 20 21 22 23 24 25 25 25 26 27 27 28 29 30 30 31 31 31 32 32 32 33 34 34 35 36 37 38 39 40 41 41 42 42 43 44 45 46 46 47 48 48 49 49 50 51 51 52 52 53 53 54 55 55 56 57 57 58 58 58 58 58 58
22 21 19 18 17 17 17 17 17 17 17 17 17 18 18 19 19 20 20 20 20 21 21 22 23 24 25 25 26 26 26 27 28 29 29 30 31 32 33 33 33 34 34 35 35 35 36 37 38 39 39 40 41 41 42 43 43 44 44 45 46 46 47 48 49 50 51 51 52 52 53 53 54 54 54 55 55 56 57 58 58 59 60 60 61 61 61
23 22 20 19 18 17 17 17 17 17 17 17 17 17 18 19 20 20 21 21 22 22 23 24 25 25 26 26 26 27 28 29 30 31 32 33 33 34 35 36 36 36 37 37 37 38 38 39 40 41 42 42 43 43 44 44 45 46 46 47 47 48 48 49 50 51 52 53 53 53 54 54 55 55 55 55 56 57 57 58 58 59 60 60 61 62 62
24 23 21 20 18 17 17 17 17 17 17 17 18 19 19 20 20 21 22 22 23 23 23 24 25 25 26 27 28 29 30 31 32 32 33 34 35 37 37 38 38 39 39 39 40 40 41 42 42 43 44 44 44 45 45 46 46 47 48 48 49 49 50 50 51 51 52 53 54 54 54 55 55 55 55 56 57 57 57 58 58 59 60 60 61 61 62
24 23 21 19 18 17 17 17 17 17 18 18 19 19 20 20 21 21 22 22 22 23 24 25 26 26 27 28 29 30 31 32 33 33 34 35 36 37 38 39 39 40 40 40 41 42 42 43 44 44 45 45 45 46 47 47 48 48 49 49 50 51 51 52 52 53 53 54 54 55 55 56 56 56 57 57 58 58 59 59 60 60 61 62 62 62 63
24 22 20 19 18 17 17 17 18 18 18 19 19 19 20 20 20 21 21 21 22 24 25 26 27 28 28 29 30 31 32 33 33 34 35 36 37 38 39 39 40 41 41 42 42 43 43 44 44 45 45 46 46 47 48 48 49 50 50 51 52 53 53 54 54 55 55 56 56 56 56 57 57 58 58 58 59 60 60 60 61 61 62 62 63 64 64
22 20 19 18 18 18 18 18 18 18 18 18 18 19 19 20 20 21 22 23 25 26 27 28 28 29 29 30 31 32 32 33 34 35 36 37 38 39 40 40 41 42 42 43 43 43 44 44 44 45 46 46 47 48 49 50 51 51 52 53 54 55 56 56 56 57 57 57 57 57 56 56 57 57 57 58 58 59 59 60 60 61 62 62 63 63 64
20 20 19 19 19 18 18 18 18 17 17 18 18 18 19 20 22 23 24 25 26 27 28 29 29 29 30 31 32 32 33 34 35 36 37 38 39 40 41 41 42 42 43 43 43 44 44 44 45 46 46 47 48 49 50 51 52 53 54 55 56 56 56 56 56 56 55 55 55 54 54 54 54 54 54 55 56 56 57 57 58 58 58 58 59 60 60
20 20 19 19 18 18 18 17 17 17 17 18 18 19 21 22 24 25 26 27 28 29 29 29 29 30 31 32 33 34 34 35 36 37 38 39 40 40 41 41 42 42 42 42 43 43 44 45 45 46 47 48 49 51 52 52 53 53 54 54 53 53 52 52 51 50 50 49 49 48 48 49 49 49 49 50 51 52 53 53 54 54 53 53 53 54 54
19 19 19 19 19 18 18 17 17 17 18 19 20 21 23 24 26 27 28 29 29 29 29 30 30 32 33 34 34 35 36 36 37 38 39 39 40 40 40 40 40 40 41 41 42 42 43 44 45 46 48 49 50 50 51 51 51 50 49 48 47 46 45 45 44 44 43 43 42 42 42 43 43 44 44 45 46 47 47 48 48 47 45 45 45 46 46
19 19 19 19 19 18 18 18 18 18 19 20 22 23 25 26 27 28 29 30 30 30 30 31 32 33 34 34 35 35 36 37 38 39 39 39 39 39 39 39 39 39 39 40 40 41 42 44 45 47 48 48 49 48 47 46 45 43 42 42 41 40 40 39 39 38 38 38 38 38 38 38 39 39 40 41 42 43 43 43 43 42 41 41 43 44 45
19 19 19 19 18 18 17 18 18 19 21 22 24 25 26 28 29 30 30 30 30 30 31 32 33 33 34 34 35 36 36 37 37 37 37 37 37 37 36 37 37 38 38 39 40 41 42 44 45 45 46 45 45 44 42 41 40 39 39 39 38 37 35 34 33 33 33 33 33 33 34 35 36 36 37 38 39 40 40 40 40 41 42 43 44 44 45
19 19 19 18 18 18 18 19 20 21 22 24 25 26 28 29 29 30 30 30 30 31 32 33 33 34 34 34 35 35 36 36 35 35 35 34 34 34 34 35 36 36 37 38 40 41 42 42 42 42 41 41 40 39 38 37 37 37 37 36 34 32 30 29 29 29 29 29 30 31 32 34 35 36 38 38 39 40 41 41 40 40 40 41 42 43 42
20 20 19 18 18 19 20 21 22 23 24 25 26 27 28 29 29 29 30 30 31 32 33 33 33 33 33 34 34 34 34 34 33 32 32 32 32 33 33 34 35 35 37 38 39 40 40 40 39 38 37 36 35 35 35 34 34 33 32 30 28 27 26 26 27 27 28 28 29 30 32 33 35 36 37 38 38 38 38 39 39 39 39 40 41 41 39
20 20 20 20 21 22 22 23 24 24 25 26 27 28 28 29 29 30 31 31 32 32 32 32 32 33 33 33 33 33 32 32 31 30 30 30 31 32 33 33 34 35 36 38 38 38 38 37 37 36 34 33 32 32 32 31 31 30 28 26 25 25 26 27 27 27 28 28 29 30 31 32 33 34 34 34 33 33 34 35 36 38 39 40 40 40 39
21 21 22 22 23 24 24 24 25 25 26 26 27 28 29 29 30 30 31 31 31 31 31 32 32 32 32 32 32 31 31 30 29 29 29 30 30 31 32 32 33 34 36 36 37 36 36 35 34 33 32 31 30 30 30 30 29 27 26 25 25 25 26 26 27 27 27 27 28 29 30 30 30 30 29 28 28 28 30 34 36 37 39 40 40 41 41
22 23 23 24 24 24 24 25 25 26 26 27 28 28 29 30 30 30 31 31 31 31 31 31 31 31 31 31 30 30 29 28 28 28 28 29 30 30 31 31 32 33 34 34 34 34 34 33 32 31 30 29 29 29 28 28 27 26 26 26 26 26 26 26 26 26 26 26 27 27 27 28 27 26 26 25 25 24 24 26 29 31 33 34 34 35 35
Wind_Direction
249 246 243 242 242 242 239 232 226 224 225 228 229 227 229 226 218 214 219 226 228 225 225 228 229 229 229 228 228 226 226 230 239 251 259 261 259 256 249 243 237 231 230 232 232 229 229 229 228 226 224 226 230 231 229 232 236 237 235 233 234 236 234 231 230 232 234 237 239 241 241 240 239 238 236 234 232 231 229 228 228 230 233 235 235 236 237
254 252 249 245 245 244 239 233 228 226 225 226 226 225 226 225 220 217 218 223 228 227 225 226 228 227 225 224 224 225 228 236 245 253 258 260 260 259 255 251 247 242 240 242 243 239 237 238 236 231 225 225 232 236 234 235 238 239 238 237 236 237 237 235 234 233 233 234 237 240 241 241 239 238 238 238 238 237 236 236 235 233 234 236 238 239 239
257 255 253 250 248 248 243 236 233 230 226 226 225 224 224 223 221 219 218 221 225 227 225 225 227 228 227 227 228 229 232 240 248 253 255 256 257 257 256 254 251 249 249 252 253 248 243 243 243 239 232 230 235 238 236 236 238 239 239 238 236 236 237 236 237 237 235 234 235 237 238 238 237 236 235 235 236 237 239 242 243 241 238 238 241 242 242
265 260 257 254 252 252 250 246 242 234 228 227 227 225 223 222 219 219 220 221 224 227 226 225 227 230 231 233 235 237 239 244 250 254 255 254 254 254 255 257 255 253 254 255 254 251 249 250 251 248 241 238 241 240 236 233 233 233 235 237 236 237 238 239 240 241 239 236 235 235 236 236 236 237 235 233 233 235 235 238 243 245 243 240 241 245 247
272 266 260 258 255 255 254 252 248 239 230 229 230 227 224 222 219 220 222 222 224 227 227 228 229 232 235 237 240 243 245 247 250 253 254 254 252 251 252 255 256 254 255 255 254 254 254 253 255 255 251 247 246 246 242 237 234 230 229 234 236 235 236 239 241 242 242 241 240 239 238 238 238 238 238 236 235 234 232 233 237 243 245 242 240 243 248
278 273 266 261 256 254 253 250 248 242 234 231 232 231 228 224 219 220 223 223 224 226 227 229 231 234 236 238 241 244 247 249 252 253 253 251 250 249 248 250 252 253 254 255 256 260 259 256 255 255 254 251 249 248 246 242 238 233 230 235 237 233 231 236 240 240 240 240 242 243 242 241 240 240 241 240 238 235 233 234 236 239 243 243 241 240 242
284 281 274 265 256 251 250 248 245 242 236 234 234 234 233 227 221 221 224 224 225 227 227 228 231 234 236 238 240 243 246 249 253 254 252 250 250 249 247 247 248 251 253 255 257 261 261 258 257 257 256 255 251 248 247 244 240 236 232 235 238 235 232 236 240 240 239 238 238 240 242 242 241 239 239 242 241 237 235 238 241 242 243 245 244 242 241
281 282 279 272 263 253 248 245 243 241 237 237 236 234 233 230 224 222 225 226 226 227 227 228 229 232 235 238 240 243 246 250 252 252 253 253 254 254 253 250 248 249 252 253 254 258 259 257 257 257 258 259 257 254 252 248 243 238 233 233 236 234 231 233 237 239 239 237 236 237 238 241 241 237 235 236 238 237 236 239 243 242 240 242 243 244 244
276 279 281 279 272 260 249 243 241 241 238 237 235 232 231 230 225 223 225 227 227 227 228 228 229 231 234 237 240 244 247 250 251 253 256 258 259 260 261 258 253 251 252 254 254 255 256 256 258 259 260 260 260 259 258 256 252 245 238 236 237 234 230 230 234 238 238 237 237 236 236 238 239 238 234 231 232 236 238 240 242 241 240 242 243 244 245
275 278 283 286 280 270 257 246 241 240 239 238 235 232 232 232 228 224 224 226 226 226 227 229 230 231 235 237 240 244 247 251 254 257 260 262 262 264 266 264 260 255 253 255 257 257 256 257 259 262 265 269 270 267 264 263 262 255 246 241 238 235 233 232 233 237 239 238 237 235 234 236 237 237 237 236 236 237 239 241 245 245 243 244 246 247 249
275 278 283 286 283 273 261 249 241 239 238 237 237 236 235 233 229 226 224 224 225 226 227 229 231 232 235 238 240 244 248 253 258 260 262 264 265 267 270 271 267 262 257 257 258 259 260 260 261 264 268 272 273 272 271 268 267 264 256 248 243 243 243 240 236 237 237 236 236 235 233 236 238 238 240 241 240 240 240 242 248 250 247 246 250 253 254
277 279 280 280 277 268 256 246 241 238 237 236 237 239 239 236 231 226 223 222 224 226 228 230 232 233 236 239 241 245 250 255 259 262 263 265 266 269 274 276 272 266 261 259 259 259 260 261 262 264 263 258 258 268 273 271 268 268 265 260 256 254 251 246 241 239 237 237 238 236 234 236 240 241 241 242 242 242 241 243 248 250 248 248 253 257 257
281 283 283 279 274 263 247 236 236 238 236 234 236 239 241 240 235 227 222 220 222 226 228 231 234 235 237 240 244 247 251 254 259 262 264 264 267 272 276 276 272 268 266 264 261 258 257 258 259 261 261 258 258 265 270 270 270 270 269 271 272 262 253 247 243 239 237 238 239 238 237 240 242 242 241 241 242 242 241 243 246 246 245 247 250 257 260
282 282 282 278 271 261 241 228 228 231 231 231 233 234 237 238 238 232 224 219 220 225 228 231 235 238 240 243 246 249 252 255 259 262 263 263 267 273 274 269 266 268 270 269 265 260 258 257 256 256 258 260 260 262 265 267 270 270 269 269 266 256 248 245 241 235 234 236 237 236 237 239 240 238 236 235 237 237 237 238 240 239 241 246 250 255 261
277 276 277 275 270 262 245 227 224 225 224 226 228 231 233 232 232 233 228 221 220 224 228 231 235 239 242 245 248 251 255 259 261 262 263 264 267 270 269 262 260 269 276 271 264 262 263 261 258 255 254 255 256 257 260 263 263 263 261 257 251 245 242 243 239 233 228 228 228 231 234 237 238 235 229 225 225 226 227 231 235 238 244 252 255 253 255
274 271 272 272 271 265 249 231 226 224 222 222 223 224 226 224 223 229 230 225 222 225 229 233 237 240 243 246 251 255 259 261 262 262 263 266 269 271 270 264 261 269 279 276 264 261 267 268 266 261 255 253 253 252 254 255 253 250 247 244 239 235 233 234 233 229 225 226 229 233 234 234 234 232 230 225 222 223 225 230 236 243 249 258 261 258 256
275 269 267 268 269 265 250 234 228 225 221 219 219 219 218 217 219 225 230 227 225 226 230 235 238 241 244 249 254 259 261 262 262 262 263 265 268 270 271 269 266 270 276 275 267 263 266 268 268 267 263 258 253 248 247 247 244 240 238 236 233 229 223 220 221 220 219 224 231 232 230 227 225 228 234 237 236 235 236 236 238 242 249 257 261 263 264
275 267 265 264 264 261 249 235 230 227 220 214 214 216 217 216 218 221 223 224 225 227 231 236 239 243 247 251 255 259 262 263 262 262 262 264 265 267 270 272 271 271 272 270 265 263 264 264 263 264 265 262 255 248 245 244 243 242 240 238 236 233 227 224 225 225 225 227 230 231 233 233 231 233 240 245 246 246 246 243 242 243 247 251 254 256 259
274 266 262 262 261 257 246 234 232 230 221 210 207 212 215 215 216 216 217 218 220 224 229 234 239 243 247 250 254 259 261 262 261 261 262 262 263 265 268 270 270 267 265 262 259 259 260 261 261 262 263 263 260 253 248 244 242 238 237 239 242 241 236 232 232 233 234 234 231 228 231 237 242 247 251 252 251 249 247 246 246 247 248 249 251 253 255
266 266 264 260 258 253 243 234 233 232 223 207 202 207 209 208 210 212 213 215 218 220 223 228 232 236 240 244 248 253 256 257 258 258 258 259 260 261 263 265 265 262 258 256 254 254 255 256 259 262 263 264 265 263 258 254 251 248 249 255 257 253 249 245 242 240 239 239 237 235 239 249 258 261 261 259 254 250 247 247 249 252 255 256 257 258 258
259 267 269 262 255 249 240 231 232 234 228 212 204 207 206 201 201 204 208 211 214 216 219 222 225 228 231 235 240 245 249 251 251 249 248 250 252 254 257 259 260 260 258 256 254 253 253 253 255 258 261 262 265 266 266 264 263 262 262 266 266 261 256 253 251 250 249 250 251 251 254 259 263 264 263 262 259 255 252 250 251 254 258 261 262 263 263
249 253 257 258 254 248 239 229 227 231 233 225 216 213 210 203 196 195 197 203 208 210 212 215 219 222 225 228 231 235 239 240 241 240 241 244 248 251 255 257 258 259 258 257 256 256 256 254 254 255 258 259 260 260 262 263 265 264 263 264 265 263 260 256 254 254 254 254 256 258 260 263 264 264 264 263 262 260 258 257 256 256 258 260 262 262 263
238 236 239 246 249 245 240 230 224 226 230 229 222 216 212 206 198 190 187 191 198 203 205 209 215 218 221 224 226 228 232 235 238 239 240 243 247 251 254 256 256 256 256 256 256 256 256 256 255 255 256 258 258 257 256 256 259 260 259 257 256 255 255 255 254 253 253 253 255 256 258 259 260 261 261 261 261 260 260 259 258 257 257 258 259 260 261
236 235 235 238 240 242 240 232 224 223 224 224 220 215 211 207 200 191 185 184 187 191 195 201 208 212 215 218 219 221 224 228 233 237 238 239 241 244 247 250 251 252 253 254 254 254 254 255 255 254 254 255 256 257 256 254 254 255 256 255 253 251 250 250 250 251 251 251 251 251 252 254 255 256 258 259 260 260 261 262 262 261 261 261 261 261 262
235 235 233 231 234 238 238 230 222 220 219 219 216 214 212 211 205 198 191 186 184 186 189 194 201 207 211 212 214 217 219 223 229 235 238 240 241 243 247 250 253 254 255 255 255 256 255 254 254 254 254 253 253 254 255 255 255 255 255 254 254 253 252 250 250 250 251 251 251 251 251 251 252 253 254 256 257 259 260 261 263 264 264 265 265 264 264
234 233 230 228 229 232 231 226 220 216 215 215 214 212 211 209 207 202 196 190 187 187 188 190 195 201 207 212 216 219 223 228 233 239 244 249 251 252 253 255 257 259 261 261 261 261 261 259 258 256 256 256 255 254 255 255 256 257 256 256 255 255 255 254 253 253 252 252 253 253 253 253 253 254 254 255 256 257 258 260 261 263 264 265 266 266 266
234 233 232 231 230 228 226 222 215 208 208 210 210 208 207 207 206 203 198 192 190 189 189 191 195 200 207 217 225 231 236 239 243 247 252 256 259 261 261 261 261 262 262 263 265 265 266 266 265 263 261 260 259 258 257 257 257 258 259 259 259 258 257 257 256 256 255 255 255 255 255 255 256 256 256 256 256 257 258 258 259 261 262 264 265 266 266
230 231 231 231 231 229 224 216 208 204 205 207 207 204 203 203 203 200 197 194 194 195 198 201 206 213 221 229 236 242 247 250 252 254 256 258 260 262 263 264 264 264 265 265 266 266 267 268 268 268 267 266 264 262 261 260 259 259 259 260 261 261 261 261 260 259 259 259 258 258 258 258 258 258 258 258 258 258 258 258 258 259 260 261 263 264 265
225 227 229 230 231 230 225 217 211 210 209 208 207 204 201 200 199 199 199 201 204 209 214 219 226 233 239 243 246 249 251 254 256 258 259 260 261 262 263 264 265 267 267 267 268 268 268 268 268 268 269 269 269 268 267 265 263 262 261 261 261 261 262 262 262 262 262 262 262 261 261 260 260 260 259 259 259 259 258 258 258 258 258 259 259 260 261
220 224 227 229 231 231 228 223 219 219 216 212 209 207 205 205 206 206 208 212 216 222 229 236 243 247 250 251 252 253 253 254 257 259 261 263 264 265 265 266 266 267 268 269 269 269 269 269 269 269 269 270 270 271 271 270 269 267 266 265 265 264 263 263 263 263 263 263 263 263 263 262 262 261 261 261 260 260 260 259 259 259 259 259 259 259 259
219 223 224 225 226 228 229 228 226 225 223 218 214 214 213 214 216 217 220 224 227 233 241 248 254 257 258 257 255 255 257 260 264 267 268 269 269 269 269 268 267 267 267 267 268 269 269 269 270 270 269 269 269 269 270 271 271 271 270 269 268 268 267 266 266 265 265 264 265 264 264 264 264 263 263 263 262 262 261 261 261 261 260 260 260 260 260
221 223 223 223 222 221 222 223 226 228 227 225 223 223 224 225 226 227 230 233 237 243 249 254 256 256 256 257 258 261 266 270 272 274 274 274 274 274 273 273 272 270 269 268 268 268 268 268 269 270 270 270 270 270 270 270 271 272 272 271 271 270 269 269 268 268 267 266 266 266 266 266 266 266 265 265 265 264 263 263 263 262 262 262 262 262 262
223 224 225 225 224 221 219 220 222 225 227 228 229 230 231 233 233 234 237 241 246 251 255 256 256 256 256 259 263 268 271 274 275 276 276 276 277 277 277 276 276 275 274 273 272 271 271 270 270 269 269 270 270 270 271 271 271 271 272 272 272 271 271 270 269 269 268 268 267 267 266 266 266 266 266 267 267 267 266 265 264 264 263 263 263 263 263
223 225 227 228 227 224 222 220 221 222 224 227 229 232 235 237 238 240 243 247 251 255 258 258 257 257 259 262 266 270 273 275 276 276 277 277 277 278 278 277 277 276 276 276 276 275 275 275 274 273 272 271 270 270 270 270 270 270 271 271 271 271 271 270 270 270 269 268 268 267 267 266 266 266 266 266 267 267 267 267 267 266 265 265 264 264 264
224 226 228 230 230 228 225 223 221 222 223 225 228 231 234 238 240 244 249 253 257 260 262 263 262 263 265 268 271 274 276 278 279 279 280 280 280 280 279 279 278 278 278 278 278 279 279 278 278 277 276 275 274 272 271 270 269 269 269 270 270 270 269 269 269 269 269 268 268 268 267 267 266 266 265 265 265 265 266 266 266 267 266 266 266 266 265
225 228 230 233 233 231 228 225 223 222 222 224 227 231 234 239 244 249 253 258 262 266 269 269 270 271 272 274 276 278 280 281 282 283 283 283 283 283 282 282 281 281 280 280 281 281 281 280 279 278 278 277 277 276 275 273 272 271 270 269 269 269 269 269 269 269 268 268 268 268 267 267 267 267 266 266 266 265 265 265 265 265 266 266 266 266 266
226 229 233 236 235 232 229 226 224 225 226 229 233 237 241 245 249 252 255 259 264 267 269 270 271 272 274 275 277 279 280 280 281 282 283 284 284 284 284 283 282 281 280 280 280 280 280 280 280 280 280 280 279 279 278 277 276 275 274 272 271 270 270 270 270 270 269 269 269 268 268 268 268 267 267 267 267 266 266 266 265 265 265 265 265 266 266
227 230 234 237 236 232 229 227 228 229 232 236 240 244 247 250 252 254 257 261 264 266 268 269 270 271 273 275 276 278 280 282 284 286 287 288 289 289 288 287 286 284 283 281 281 281 281 281 282 282 281 281 280 280 280 279 279 278 277 276 275 274 273 272 272 271 271 270 270 269 269 268 268 268 267 267 267 266 266 266 266 266 265 265 265 265 265
228 231 234 236 235 231 229 229 230 233 236 240 244 247 250 253 256 259 262 265 268 271 272 274 275 276 277 279 281 283 285 287 289 290 290 290 290 289 288 288 287 285 284 283 283 282 283 283 283 283 282 282 282 281 281 281 280 280 279 278 278 277 275 274 273 272 271 271 270 270 269 269 268 268 267 267 267 266 266 265 265 265 265 265 265 265 265
229 231 234 234 234 231 230 231 232 235 239 243 247 251 255 259 262 265 269 272 275 277 279 280 281 282 283 285 286 287 288 288 288 288 288 288 287 287 287 286 286 285 284 284 284 284 284 284 284 283 283 283 283 282 282 282 281 281 280 279 278 278 277 276 275 273 272 271 271 270 269 269 268 268 267 267 266 266 266 265 265 265 264 264 264 264 264
230 232 233 233 233 231 231 232 235 239 244 249 254 257 260 263 266 269 273 276 278 280 281 283 283 284 284 285 286 286 286 287 287 288 288 288 287 287 287 287 286 286 286 286 285 285 285 284 284 284 284 284 284 284 283 283 282 281 280 280 279 278 277 277 276 275 274 273 272 271 271 270 269 268 267 267 266 265 265 265 265 264 264 264 263 263 263
231 232 232 231 230 231 233 237 241 246 250 253 256 258 261 264 268 271 274 276 278 280 281 281 281 282 283 284 285 285 286 287 288 288 288 288 288 288 288 288 288 288 288 288 287 287 287 286 286 286 286 285 285 284 284 283 282 282 281 280 280 279 279 278 278 277 276 275 274 273 272 270 269 268 267 266 265 265 264 264 264 263 263 263 263 264 264
230 230 230 230 231 234 238 242 245 248 250 252 255 259 262 266 269 272 274 277 278 279 279 279 280 281 283 285 286 287 288 288 289 289 289 290 290 290 290 290 290 290 290 290 289 289 289 288 288 288 287 287 287 286 286 285 285 284 284 283 282 281 281 280 279 278 277 276 274 273 272 270 269 267 266 265 264 263 262 262 262 263 263 263 264 264 265
226 227 229 232 235 239 243 245 248 250 253 256 259 263 266 269 272 274 276 278 278 279 279 280 282 284 285 287 289 289 290 290 291 291 292 292 292 292 292 292 292 292 291 291 290 290 290 290 290 289 289 290 289 289 289 288 287 287 286 285 283 282 281 280 279 278 276 275 274 272 271 269 268 266 265 264 263 262 261 261 261 262 263 264 265 266 266
225 227 231 236 240 243 246 249 251 255 258 262 265 269 271 274 275 277 278 279 280 281 282 283 284 286 289 290 291 292 292 293 293 293 294 294 294 294 294 293 292 291 291 290 290 291 291 292 292 292 293 292 292 291 290 290 289 287 286 285 283 282 281 279 278 277 275 274 273 272 270 269 268 266 265 264 263 263 262 262 262 262 263 265 266 267 267
227 231 235 239 242 245 247 250 254 259 264 268 271 273 275 277 278 280 281 282 283 284 285 286 288 290 291 292 292 292 293 294 294 295 295 296 295 295 294 293 292 292 292 293 293 294 295 295 296 295 295 294 293 292 291 290 289 287 286 285 284 282 280 279 277 275 274 273 272 271 270 269 268 267 266 265 264 263 262 261 260 259 259 260 262 263 264
231 235 238 240 242 245 249 254 260 266 270 273 275 277 279 280 282 283 285 286 288 288 289 290 291 291 291 291 292 293 294 295 296 296 297 296 295 294 294 294 294 295 296 297 298 298 299 298 298 298 297 296 294 293 291 290 289 288 287 286 285 283 281 279 277 275 274 273 273 272 272 271 271 270 268 267 266 265 264 263 260 259 258 259 260 263 265
236 238 239 241 245 251 258 264 269 273 276 278 279 281 282 284 286 288 289 290 291 290 290 290 290 290 290 291 292 294 295 296 297 297 296 295 295 295 296 297 298 299 300 301 301 302 302 301 301 300 298 297 295 294 292 291 290 290 289 288 286 284 281 279 278 277 277 276 276 275 274 274 273 272 271 269 268 266 265 264 263 262 262 262 262 263 264
238 239 241 247 254 261 267 272 275 278 280 282 283 284 286 287 289 290 291 291 290 289 289 288 289 290 291 292 294 295 297 297 296 295 294 295 296 297 298 300 301 301 302 303 304 305 305 304 303 302 300 298 297 295 294 293 293 292 290 288 286 283 281 280 279 279 278 278 278 278 278 278 277 275 272 270 268 266 263 261 260 259 259 258 258 256 256
241 244 250 257 264 269 273 277 280 282 283 284 285 286 287 288 288 289 289 288 288 287 287 288 290 291 292 294 295 296 296 295 294 294 294 295 297 299 301 302 303 304 306 307 308 309 308 308 307 305 303 301 299 298 296 295 294 292 288 284 282 282 282 282 281 280 279 279 280 283 284 284 282 278 274 271 268 264 259 257 256 255 255 256 258 261 264
247 252 258 263 268 272 276 280 282 283 284 285 285 285 285 286 287 288 288 287 287 287 289 290 292 293 294 295 296 295 294 293 293 294 295 297 300 302 303 304 305 307 309 311 312 312 311 311 310 308 305 304 303 301 299 297 295 290 284 280 279 282 283 283 282 280 280 281 284 288 289 288 285 281 275 271 267 263 258 256 257 258 260 262 265 269 273
253 257 262 267 271 275 278 281 282 284 284 284 284 284 286 287 288 288 288 288 289 290 292 293 294 295 295 296 295 294 293 293 293 294 297 300 302 303 304 304 306 309 312 313 314 314 314 313 312 310 308 306 305 304 302 300 297 291 284 279 278 280 283 284 283 283 282 285 288 291 292 290 287 282 273 265 263 265 265 262 261 261 263 264 267 269 272
Height
5806 5807 5808 5809 5811 5812 5814 5815 5817 5820 5822 5823 5825 5827 5829 5831 5833 5835 5838 5840 5843 5845 5848 5850 5851 5853 5854 5855 5857 5859 5860 5860 5861 5862 5864 5865 5866 5866 5868 5869 5870 5870 5869 5868 5871 5874 5874 5875 5876 5878 5879 5881 5883 5885 5887 5889 5890 5890 5892 5894 5895 5896 5897 5899 5900 5902 5904 5906 5907 5909 5910 5911 5912 5913 5913 5913 5913 5914 5914 5915 5915 5915 5916 5917 5918 5919 5920
5804 5805 5806 5807 5808 5809 5811 5812 5815 5817 5819 5821 5822 5824 5826 5829 5831 5833 5836 5838 5840 5843 5845 5847 5849 5851 5852 5854 5855 5857 5858 5859 5859 5861 5862 5863 5863 5864 5866 5867 5868 5868 5867 5867 5870 5873 5872 5872 5874 5875 5876 5878 5880 5882 5883 5884 5885 5886 5888 5889 5891 5893 5894 5896 5897 5899 5900 5902 5904 5905 5907 5908 5908 5909 5909 5910 5911 5912 5913 5913 5913 5913 5914 5915 5916 5916 5918
5802 5803 5804 5804 5805 5806 5808 5810 5812 5814 5816 5818 5820 5821 5824 5826 5829 5831 5834 5836 5838 5840 5842 5845 5847 5848 5850 5851 5852 5854 5856 5856 5857 5858 5859 5860 5861 5862 5864 5865 5866 5866 5866 5867 5869 5870 5869 5870 5871 5873 5874 5875 5877 5879 5879 5881 5882 5883 5883 5885 5887 5889 5890 5892 5893 5895 5897 5898 5900 5901 5903 5903 5904 5905 5906 5907 5908 5909 5910 5911 5912 5912 5912 5913 5914 5914 5915
5800 5801 5802 5802 5803 5804 5805 5807 5809 5810 5812 5814 5816 5819 5821 5824 5826 5828 5831 5834 5836 5837 5840 5842 5844 5845 5847 5849 5850 5852 5853 5854 5855 5855 5856 5857 5858 5860 5861 5863 5865 5865 5865 5865 5866 5867 5867 5868 5869 5870 5871 5872 5874 5876 5876 5877 5878 5879 5880 5881 5882 5883 5885 5888 5890 5892 5893 5894 5895 5897 5899 5900 5900 5902 5904 5904 5904 5904 5905 5906 5908 5909 5910 5910 5911 5912 5913
5798 5799 5799 5800 5801 5802 5803 5804 5805 5807 5808 5811 5813 5816 5819 5821 5824 5826 5829 5831 5833 5834 5837 5840 5841 5843 5845 5846 5847 5849 5850 5852 5853 5853 5853 5853 5855 5857 5859 5861 5863 5864 5863 5863 5863 5863 5864 5866 5867 5867 5868 5869 5871 5872 5873 5873 5873 5874 5876 5878 5878 5878 5881 5884 5886 5888 5890 5891 5893 5894 5896 5898 5898 5899 5901 5901 5900 5900 5900 5901 5903 5905 5907 5908 5908 5909 5910
5796 5796 5797 5798 5799 5800 5801 5801 5802 5803 5805 5807 5810 5813 5815 5818 5821 5824 5826 5828 5830 5832 5835 5837 5839 5841 5842 5843 5844 5846 5847 5849 5849 5850 5850 5850 5851 5853 5855 5858 5860 5861 5861 5861 5861 5861 5862 5863 5865 5865 5865 5865 5867 5867 5868 5869 5870 5870 5872 5875 5875 5876 5878 5880 5881 5883 5886 5888 5890 5892 5894 5895 5895 5896 5896 5896 5896 5896 5898 5899 5900 5901 5903 5905 5905 5906 5906
5794 5794 5795 5796 5797 5798 5798 5799 5800 5801 5802 5804 5807 5809 5812 5816 5819 5821 5823 5825 5827 5829 5832 5834 5836 5838 5839 5840 5841 5843 5844 5845 5846 5847 5847 5847 5848 5850 5852 5855 5857 5858 5859 5859 5859 5859 5860 5861 5862 5862 5862 5861 5862 5863 5863 5864 5865 5866 5868 5870 5871 5873 5875 5876 5877 5878 5881 5883 5885 5887 5889 5889 5890 5891 5892 5892 5893 5894 5896 5898 5899 5899 5901 5903 5903 5903 5902
5792 5792 5793 5793 5795 5796 5796 5797 5797 5798 5800 5802 5803 5806 5809 5812 5815 5818 5820 5822 5824 5826 5829 5831 5833 5835 5836 5837 5838 5840 5841 5842 5843 5844 5844 5845 5846 5847 5849 5852 5854 5855 5855 5856 5856 5857 5858 5859 5860 5860 5859 5859 5859 5859 5859 5860 5861 5862 5864 5865 5866 5868 5870 5871 5872 5873 5875 5877 5880 5882 5883 5884 5885 5886 5887 5888 5889 5890 5893 5895 5896 5897 5899 5899 5899 5899 5900
5791 5790 5791 5791 5792 5793 5794 5794 5795 5796 5798 5799 5800 5802 5805 5809 5812 5814 5817 5819 5821 5824 5826 5828 5830 5832 5833 5834 5835 5836 5838 5839 5841 5841 5842 5843 5843 5845 5846 5848 5850 5851 5852 5852 5853 5854 5855 5857 5857 5858 5857 5856 5856 5856 5856 5856 5857 5858 5860 5861 5862 5863 5864 5865 5866 5868 5869 5872 5874 5876 5878 5880 5881 5882 5883 5884 5886 5887 5890 5891 5893 5894 5895 5895 5896 5896 5897
5790 5789 5789 5789 5790 5791 5791 5792 5793 5794 5795 5796 5798 5800 5802 5805 5808 5811 5813 5816 5818 5821 5824 5826 5827 5829 5830 5831 5832 5833 5835 5836 5837 5838 5839 5840 5841 5842 5844 5845 5846 5848 5848 5848 5849 5850 5852 5853 5854 5855 5854 5854 5854 5854 5854 5854 5855 5855 5856 5857 5858 5859 5860 5860 5861 5863 5865 5867 5869 5872 5874 5875 5876 5878 5879 5881 5882 5884 5887 5888 5889 5890 5891 5892 5892 5893 5893
5788 5788 5787 5787 5788 5789 5789 5790 5791 5792 5793 5794 5796 5797 5799 5801 5804 5807 5809 5812 5815 5818 5820 5822 5824 5826 5827 5828 5829 5831 5832 5833 5834 5835 5836 5837 5838 5840 5841 5841 5842 5844 5844 5845 5845 5847 5849 5850 5851 5852 5853 5853 5852 5851 5851 5852 5853 5853 5854 5855 5856 5858 5857 5858 5859 5860 5862 5863 5864 5867 5870 5871 5872 5874 5876 5877 5879 5880 5883 5884 5885 5886 5888 5889 5888 5889 5889
5787 5786 5786 5785 5786 5786 5787 5788 5789 5790 5791 5792 5793 5794 5796 5797 5800 5802 5805 5809 5812 5815 5817 5819 5821 5823 5824 5825 5827 5828 5830 5831 5832 5833 5834 5835 5836 5837 5838 5838 5839 5840 5841 5841 5842 5843 5845 5846 5848 5849 5850 5852 5851 5849 5850 5850 5850 5850 5851 5852 5854 5855 5856 5856 5856 5857 5859 5859 5860 5862 5864 5866 5867 5869 5871 5873 5875 5876 5878 5880 5881 5881 5883 5884 5884 5884 5885
5785 5784 5784 5784 5784 5785 5785 5786 5787 5788 5789 5790 5791 5792 5793 5795 5796 5798 5802 5806 5809 5812 5814 5816 5818 5819 5821 5822 5824 5826 5828 5829 5830 5831 5831 5833 5834 5835 5835 5836 5836 5837 5837 5838 5839 5840 5841 5842 5844 5845 5846 5848 5848 5848 5849 5849 5847 5847 5848 5850 5851 5853 5853 5853 5853 5854 5855 5856 5856 5858 5859 5861 5862 5864 5866 5868 5870 5872 5874 5876 5877 5878 5879 5880 5880 5880 5880
5783 5783 5782 5782 5782 5783 5784 5784 5785 5786 5787 5788 5789 5790 5791 5792 5794 5795 5798 5802 5805 5808 5811 5813 5814 5816 5817 5819 5821 5823 5825 5827 5828 5828 5829 5830 5832 5833 5833 5833 5834 5834 5835 5836 5837 5837 5837 5839 5840 5841 5842 5843 5845 5846 5847 5847 5846 5845 5845 5847 5849 5849 5850 5851 5851 5852 5853 5853 5854 5855 5856 5857 5857 5858 5860 5863 5865 5867 5869 5871 5872 5874 5876 5876 5877 5877 5876
5782 5781 5781 5781 5781 5781 5782 5783 5783 5784 5785 5786 5787 5788 5789 5790 5792 5793 5795 5798 5802 5804 5807 5809 5811 5812 5814 5816 5818 5820 5822 5823 5824 5825 5827 5828 5829 5830 5831 5831 5831 5832 5833 5834 5835 5834 5834 5835 5836 5838 5839 5840 5841 5843 5844 5843 5843 5843 5843 5844 5845 5846 5847 5848 5848 5849 5850 5851 5851 5852 5853 5854 5854 5855 5857 5859 5860 5862 5865 5867 5869 5870 5872 5872 5873 5874 5874
5780 5780 5780 5780 5780 5780 5781 5781 5782 5783 5784 5784 5785 5786 5787 5788 5790 5791 5792 5795 5798 5801 5803 5805 5807 5809 5811 5814 5816 5817 5819 5820 5821 5822 5824 5825 5826 5827 5827 5828 5829 5829 5830 5832 5833 5833 5832 5832 5833 5835 5835 5836 5838 5840 5840 5840 5840 5841 5841 5842 5843 5844 5845 5846 5846 5846 5847 5848 5849 5850 5851 5852 5854 5855 5857 5857 5858 5859 5861 5863 5865 5866 5868 5869 5870 5871 5872
5779 5779 5779 5778 5778 5779 5780 5780 5780 5781 5782 5783 5784 5784 5785 5786 5788 5789 5790 5792 5795 5797 5800 5802 5804 5806 5809 5811 5813 5814 5815 5816 5818 5819 5820 5821 5822 5823 5823 5824 5825 5826 5827 5828 5830 5830 5830 5831 5831 5832 5832 5833 5834 5836 5836 5836 5837 5837 5837 5838 5840 5841 5843 5843 5843 5844 5845 5846 5846 5848 5849 5850 5852 5853 5855 5856 5856 5857 5858 5860 5861 5862 5864 5866 5867 5868 5869
5777 5777 5777 5777 5777 5778 5778 5779 5779 5780 5780 5781 5782 5782 5783 5784 5785 5787 5788 5790 5792 5794 5796 5799 5802 5804 5806 5808 5809 5810 5812 5813 5814 5815 5816 5817 5818 5818 5819 5820 5821 5822 5822 5824 5825 5827 5828 5828 5829 5829 5829 5830 5832 5833 5833 5833 5834 5835 5835 5836 5837 5839 5840 5840 5840 5841 5842 5843 5844 5846 5847 5848 5849 5850 5852 5854 5855 5855 5856 5857 5858 5860 5861 5862 5863 5864 5865
5776 5776 5776 5776 5776 5776 5777 5778 5778 5778 5778 5779 5780 5781 5781 5782 5784 5785 5786 5788 5790 5792 5794 5797 5799 5801 5804 5805 5806 5807 5808 5809 5810 5811 5812 5813 5814 5814 5815 5816 5817 5818 5818 5819 5820 5821 5823 5824 5825 5826 5826 5827 5828 5830 5830 5830 5831 5832 5832 5833 5834 5835 5837 5838 5838 5839 5840 5841 5842 5843 5844 5845 5846 5848 5849 5851 5852 5852 5853 5854 5855 5856 5858 5859 5860 5860 5861
5775 5775 5775 5775 5775 5776 5776 5777 5777 5777 5777 5777 5778 5779 5780 5781 5782 5783 5785 5786 5788 5790 5792 5794 5796 5798 5800 5802 5803 5803 5804 5805 5806 5807 5808 5809 5810 5810 5811 5812 5813 5813 5814 5814 5815 5816 5818 5820 5821 5822 5822 5823 5824 5825 5826 5827 5827 5828 5829 5830 5831 5833 5834 5835 5836 5836 5837 5838 5839 5840 5841 5842 5843 5845 5846 5847 5848 5848 5849 5850 5851 5852 5853 5854 5855 5856 5857
5773 5774 5774 5774 5775 5775 5776 5776 5776 5776 5776 5776 5778 5779 5780 5780 5781 5782 5783 5785 5787 5788 5790 5792 5794 5795 5797 5798 5799 5800 5801 5802 5803 5804 5805 5806 5806 5807 5807 5808 5809 5809 5810 5810 5811 5813 5814 5815 5816 5817 5818 5819 5820 5821 5822 5823 5823 5824 5825 5826 5827 5829 5830 5832 5833 5833 5834 5835 5836 5837 5838 5839 5840 5841 5842 5842 5843 5844 5845 5846 5847 5848 5849 5850 5851 5852 5853
5772 5773 5773 5773 5774 5774 5775 5775 5776 5776 5776 5776 5778 5779 5780 5780 5781 5782 5783 5784 5786 5787 5789 5790 5791 5793 5794 5796 5797 5798 5799 5800 5801 5802 5802 5803 5803 5804 5804 5805 5806 5806 5807 5807 5808 5809 5810 5811 5812 5813 5814 5815 5816 5817 5818 5818 5819 5820 5822 5823 5824 5825 5826 5827 5829 5830 5831 5832 5833 5834 5834 5835 5836 5837 5837 5838 5839 5840 5840 5841 5843 5844 5845 5846 5847 5848 5848
5771 5771 5772 5772 5773 5773 5774 5774 5775 5776 5776 5777 5777 5778 5779 5780 5781 5782 5783 5784 5785 5786 5788 5789 5790 5791 5792 5794 5795 5797 5798 5798 5799 5800 5800 5801 5801 5802 5802 5802 5803 5803 5804 5804 5805 5806 5807 5807 5808 5809 5810 5811 5812 5813 5814 5814 5815 5816 5817 5818 5820 5821 5822 5823 5824 5825 5827 5828 5829 5830 5831 5831 5832 5832 5833 5834 5835 5835 5836 5837 5838 5839 5840 5841 5841 5842 5843
5769 5770 5771 5771 5772 5773 5773 5774 5774 5775 5776 5776 5777 5778 5779 5779 5780 5781 5782 5783 5784 5785 5787 5789 5790 5791 5792 5793 5794 5795 5796 5796 5796 5797 5798 5799 5799 5800 5800 5800 5800 5801 5801 5802 5802 5803 5803 5804 5805 5806 5807 5807 5808 5809 5809 5810 5811 5812 5813 5814 5815 5816 5817 5818 5819 5820 5821 5822 5824 5825 5826 5827 5827 5828 5829 5829 5829 5830 5831 5831 5832 5833 5834 5835 5835 5836 5837
5768 5768 5769 5770 5771 5772 5772 5773 5774 5774 5775 5776 5777 5777 5778 5779 5779 5781 5782 5783 5784 5785 5787 5788 5789 5790 5791 5791 5792 5793 5793 5794 5794 5795 5796 5796 5797 5797 5798 5798 5798 5798 5799 5799 5800 5800 5800 5801 5802 5803 5803 5804 5805 5805 5806 5806 5807 5808 5809 5810 5810 5811 5812 5812 5813 5814 5815 5816 5817 5818 5819 5821 5821 5822 5823 5823 5824 5824 5825 5826 5826 5826 5827 5828 5829 5830 5831
5766 5767 5768 5769 5770 5771 5772 5773 5773 5774 5775 5775 5776 5777 5777 5778 5779 5780 5781 5782 5783 5784 5786 5787 5788 5789 5789 5790 5791 5791 5792 5792 5793 5793 5794 5794 5794 5795 5795 5796 5796 5796 5796 5796 5797 5797 5797 5798 5799 5799 5800 5801 5801 5802 5802 5802 5803 5803 5804 5805 5806 5806 5807 5807 5808 5809 5810 5810 5811 5812 5813 5814 5815 5816 5816 5817 5818 5818 5819 5820 5820 5820 5821 5821 5822 5823 5824
5765 5766 5766 5767 5768 5770 5771 5772 5773 5773 5774 5774 5775 5776 5777 5777 5778 5779 5780 5781 5783 5784 5785 5786 5787 5788 5788 5789 5789 5790 5790 5791 5791 5791 5792 5792 5792 5792 5792 5793 5793 5793 5794 5794 5794 5794 5794 5794 5795 5795 5796 5797 5797 5798 5798 5798 5799 5799 5800 5800 5801 5801 5802 5802 5803 5804 5805 5805 5806 5806 5807 5807 5808 5809 5810 5810 5811 5812 5812 5813 5814 5814 5814 5815 5815 5815 5816
5764 5764 5765 5765 5767 5768 5770 5772 5772 5773 5773 5774 5774 5775 5776 5777 5778 5779 5780 5781 5782 5783 5784 5785 5786 5787 5787 5788 5788 5789 5789 5789 5789 5789 5789 5789 5789 5789 5789 5790 5790 5790 5790 5791 5791 5791 5791 5791 5791 5791 5792 5792 5792 5793 5794 5794 5795 5795 5796 5796 5796 5796 5797 5797 5798 5798 5799 5799 5800 5800 5801 5801 5802 5802 5803 5804 5804 5805 5805 5806 5806 5807 5807 5807 5808 5808 5809
5763 5763 5764 5764 5765 5767 5768 5770 5771 5772 5772 5773 5774 5775 5776 5777 5778 5778 5779 5780 5781 5782 5783 5784 5784 5785 5786 5786 5786 5786 5787 5787 5787 5787 5787 5787 5787 5787 5787 5787 5787 5787 5787 5787 5787 5787 5787 5787 5787 5787 5788 5788 5788 5788 5789 5789 5790 5791 5791 5791 5792 5792 5792 5792 5793 5793 5793 5794 5794 5794 5795 5795 5796 5796 5796 5797 5797 5797 5798 5798 5799 5800 5800 5800 5800 5801 5801
5762 5762 5763 5763 5764 5765 5766 5768 5769 5770 5771 5772 5773 5774 5775 5775 5776 5777 5778 5779 5780 5781 5781 5782 5782 5783 5783 5783 5784 5784 5784 5784 5784 5784 5784 5784 5785 5785 5784 5784 5784 5784 5784 5783 5783 5783 5783 5783 5783 5783 5783 5783 5783 5783 5784 5784 5785 5785 5786 5786 5787 5787 5787 5788 5788 5788 5788 5788 5788 5789 5789 5789 5789 5790 5790 5790 5790 5790 5791 5791 5792 5792 5792 5793 5793 5793 5793
5761 5761 5762 5762 5763 5763 5764 5766 5767 5768 5769 5771 5772 5773 5773 5774 5775 5776 5777 5778 5778 5779 5779 5780 5780 5780 5780 5780 5781 5781 5781 5782 5782 5782 5782 5782 5782 5782 5782 5782 5782 5781 5781 5781 5780 5780 5779 5779 5779 5779 5779 5779 5779 5779 5779 5779 5779 5779 5780 5781 5781 5781 5781 5782 5782 5782 5782 5783 5783 5783 5783 5783 5783 5783 5783 5783 5783 5783 5784 5784 5784 5785 5785 5786 5785 5785 5785
5759 5760 5760 5761 5761 5762 5762 5763 5765 5766 5767 5769 5770 5771 5772 5773 5773 5774 5775 5776 5776 5777 5777 5777 5777 5778 5778 5778 5778 5779 5779 5779 5779 5779 5779 5779 5779 5778 5778 5778 5778 5778 5778 5777 5777 5777 5776 5776 5775 5775 5775 5774 5774 5774 5774 5774 5774 5774 5774 5774 5775 5775 5775 5775 5775 5775 5776 5776 5776 5776 5776 5776 5776 5776 5776 5776 5776 5776 5776 5777 5777 5777 5778 5778 5778 5777 5777
5756 5758 5758 5759 5759 5760 5760 5761 5762 5764 5765 5766 5768 5769 5770 5771 5771 5772 5773 5773 5774 5774 5775 5775 5775 5775 5775 5776 5776 5776 5776 5776 5776 5776 5776 5775 5775 5775 5774 5774 5774 5774 5773 5773 5773 5773 5772 5772 5771 5771 5771 5770 5770 5769 5769 5769 5769 5768 5768 5768 5768 5768 5768 5768 5768 5768 5768 5768 5768 5769 5769 5769 5769 5769 5768 5768 5768 5768 5769 5769 5769 5770 5770 5770 5770 5769 5770
5754 5755 5756 5757 5757 5758 5758 5759 5760 5761 5763 5764 5765 5766 5768 5768 5769 5770 5770 5771 5771 5771 5772 5772 5772 5772 5772 5773 5773 5773 5773 5773 5773 5772 5772 5772 5771 5771 5771 5770 5770 5770 5769 5769 5769 5768 5768 5767 5767 5766 5766 5766 5765 5765 5764 5764 5763 5763 5762 5762 5762 5761 5761 5761 5761 5761 5761 5761 5761 5761 5761 5761 5761 5761 5761 5761 5761 5761 5761 5761 5761 5762 5762 5762 5761 5761 5762
5751 5753 5754 5754 5755 5756 5756 5757 5758 5759 5760 5762 5763 5764 5765 5766 5766 5767 5767 5768 5768 5768 5768 5768 5769 5769 5769 5769 5769 5769 5769 5768 5768 5768 5768 5767 5767 5767 5766 5766 5766 5765 5765 5764 5764 5763 5763 5762 5762 5761 5760 5760 5759 5759 5759 5759 5758 5757 5757 5756 5755 5755 5754 5754 5754 5753 5753 5753 5753 5753 5753 5753 5753 5754 5754 5753 5753 5753 5753 5752 5752 5753 5753 5753 5752 5752 5752
5749 5750 5751 5752 5753 5754 5754 5755 5756 5757 5758 5759 5760 5761 5762 5763 5764 5764 5764 5765 5765 5765 5765 5765 5765 5765 5765 5764 5764 5764 5764 5763 5763 5763 5762 5762 5762 5761 5761 5760 5760 5760 5759 5758 5758 5757 5757 5756 5755 5755 5754 5753 5753 5752 5752 5752 5751 5751 5750 5749 5749 5748 5747 5747 5746 5746 5745 5745 5745 5745 5745 5745 5745 5745 5746 5745 5745 5745 5744 5744 5744 5744 5744 5743 5743 5743 5743
5746 5747 5748 5749 5750 5751 5752 5752 5753 5754 5755 5756 5757 5758 5759 5760 5761 5761 5761 5762 5762 5762 5762 5762 5762 5761 5761 5761 5760 5760 5759 5759 5758 5758 5757 5756 5756 5755 5755 5755 5754 5754 5753 5752 5752 5751 5750 5749 5749 5748 5747 5747 5746 5745 5744 5744 5743 5743 5742 5742 5741 5740 5740 5739 5739 5738 5737 5737 5737 5737 5737 5737 5737 5737 5737 5737 5736 5736 5735 5735 5735 5735 5735 5734 5733 5733 5733
5744 5745 5746 5747 5748 5749 5749 5750 5751 5751 5752 5753 5754 5755 5756 5757 5758 5758 5759 5759 5759 5759 5759 5759 5758 5758 5758 5757 5756 5756 5755 5754 5753 5752 5751 5751 5750 5749 5748 5748 5747 5747 5746 5746 5745 5744 5743 5742 5742 5741 5740 5740 5739 5738 5737 5736 5735 5735 5734 5733 5733 5732 5732 5731 5730 5730 5729 5728 5728 5728 5728 5728 5728 5728 5728 5728 5727 5726 5726 5726 5726 5726 5726 5725 5724 5724 5724
5741 5742 5743 5745 5745 5746 5747 5748 5748 5749 5750 5751 5751 5752 5753 5754 5754 5754 5755 5755 5755 5755 5754 5754 5754 5753 5753 5752 5752 5751 5750 5749 5748 5747 5746 5745 5744 5743 5742 5741 5741 5740 5739 5738 5737 5736 5736 5735 5734 5733 5732 5732 5731 5730 5729 5728 5727 5726 5725 5725 5724 5723 5722 5722 5722 5721 5720 5719 5719 5719 5719 5719 5719 5719 5719 5718 5717 5717 5717 5717 5717 5716 5716 5715 5715 5715 5715
5738 5739 5741 5742 5743 5743 5744 5745 5746 5746 5747 5748 5748 5749 5749 5750 5750 5750 5750 5750 5750 5750 5749 5749 5749 5748 5748 5747 5747 5746 5745 5744 5744 5743 5742 5741 5739 5738 5737 5736 5735 5734 5733 5732 5730 5729 5728 5727 5726 5725 5724 5724 5723 5722 5721 5720 5719 5718 5717 5716 5715 5714 5713 5712 5712 5711 5711 5710 5710 5710 5710 5709 5709 5709 5709 5709 5708 5708 5707 5707 5707 5707 5706 5706 5706 5705 5705
5735 5737 5738 5739 5740 5741 5741 5742 5743 5743 5744 5744 5745 5745 5746 5746 5746 5746 5746 5746 5746 5745 5745 5745 5744 5744 5744 5743 5742 5742 5741 5740 5739 5738 5737 5735 5734 5732 5731 5729 5728 5727 5726 5725 5723 5722 5721 5720 5719 5718 5717 5716 5714 5713 5712 5711 5710 5709 5708 5707 5705 5704 5703 5702 5702 5701 5700 5700 5700 5700 5700 5699 5699 5699 5699 5698 5698 5697 5697 5698 5698 5697 5696 5695 5695 5695 5694
5733 5734 5735 5736 5737 5738 5738 5739 5740 5740 5741 5742 5742 5742 5743 5743 5743 5743 5742 5742 5742 5742 5742 5741 5741 5740 5740 5739 5738 5737 5736 5735 5734 5732 5731 5729 5728 5726 5725 5723 5722 5721 5719 5718 5716 5715 5714 5712 5711 5710 5709 5707 5706 5704 5703 5702 5700 5699 5698 5697 5695 5694 5693 5692 5691 5690 5689 5689 5689 5689 5689 5688 5688 5688 5688 5687 5687 5687 5688 5688 5687 5686 5685 5686 5686 5685 5685
5730 5732 5733 5733 5734 5735 5736 5736 5737 5738 5738 5739 5739 5739 5739 5739 5739 5739 5739 5739 5739 5738 5738 5737 5737 5736 5735 5734 5733 5732 5731 5730 5728 5727 5725 5724 5722 5720 5719 5717 5716 5714 5712 5711 5709 5708 5706 5705 5703 5702 5700 5698 5697 5695 5694 5692 5690 5689 5687 5686 5685 5683 5682 5681 5680 5679 5678 5678 5677 5677 5677 5677 5677 5677 5677 5676 5677 5677 5678 5678 5677 5676 5676 5677 5677 5676 5676
5728 5729 5730 5731 5732 5732 5733 5734 5734 5735 5735 5735 5736 5736 5736 5736 5736 5736 5736 5735 5735 5734 5733 5733 5732 5731 5730 5729 5728 5726 5725 5723 5722 5721 5719 5718 5716 5714 5713 5711 5709 5708 5706 5704 5703 5701 5699 5697 5695 5694 5692 5690 5688 5686 5684 5682 5680 5678 5677 5676 5674 5673 5672 5670 5669 5669 5668 5667 5667 5667 5667 5667 5667 5668 5667 5667 5667 5668 5668 5668 5668 5668 5668 5668 5668 5668 5668
5726 5727 5727 5728 5729 5729 5730 5730 5731 5731 5732 5732 5732 5732 5732 5732 5732 5732 5731 5731 5730 5729 5729 5728 5727 5726 5724 5723 5722 5720 5719 5717 5716 5714 5713 5712 5710 5708 5707 5705 5703 5702 5700 5698 5696 5695 5693 5690 5688 5686 5684 5682 5679 5677 5674 5672 5671 5669 5668 5666 5665 5664 5662 5661 5660 5660 5659 5659 5659 5659 5658 5658 5659 5659 5659 5659 5659 5659 5660 5660 5660 5660 5661 5661 5662 5662 5661
5723 5724 5725 5726 5726 5727 5727 5728 5728 5728 5728 5728 5728 5728 5728 5728 5727 5727 5726 5726 5725 5725 5724 5723 5722 5720 5719 5717 5716 5714 5713 5712 5710 5709 5707 5705 5704 5702 5701 5699 5697 5696 5694 5692 5690 5688 5686 5683 5681 5679 5676 5673 5671 5668 5666 5664 5662 5661 5659 5658 5657 5656 5655 5653 5653 5652 5652 5652 5652 5651 5651 5651 5651 5652 5652 5652 5652 5651 5652 5653 5653 5653 5654 5655 5655 5655 5654
5721 5722 5722 5723 5724 5724 5724 5725 5725 5725 5725 5725 5725 5725 5724 5724 5723 5722 5722 5721 5720 5719 5718 5717 5716 5715 5713 5712 5710 5709 5708 5706 5705 5703 5701 5699 5698 5696 5695 5693 5691 5690 5688 5686 5684 5681 5679 5676 5674 5671 5668 5666 5663 5661 5659 5657 5655 5654 5652 5651 5650 5649 5648 5647 5646 5646 5646 5646 5646 5645 5645 5645 5645 5645 5645 5646 5645 5645 5646 5646 5647 5647 5648 5648 5648 5648 5648
5719 5719 5720 5720 5721 5721 5721 5721 5721 5721 5721 5721 5721 5720 5720 5719 5718 5718 5717 5716 5715 5714 5713 5712 5711 5710 5708 5707 5705 5704 5702 5701 5699 5697 5696 5694 5693 5691 5689 5688 5686 5684 5682 5680 5677 5675 5672 5670 5667 5664 5661 5659 5656 5654 5652 5651 5649 5647 5646 5644 5643 5643 5642 5641 5641 5641 5641 5640 5640 5640 5640 5640 5639 5639 5639 5639 5639 5639 5639 5640 5640 5641 5642 5642 5642 5642 5642
5716 5717 5717 5717 5718 5718 5718 5718 5718 5718 5717 5717 5717 5716 5715 5715 5714 5713 5713 5712 5711 5710 5709 5707 5706 5705 5703 5702 5700 5698 5697 5695 5694 5692 5691 5689 5688 5686 5684 5683 5681 5678 5676 5674 5671 5669 5666 5663 5661 5658 5655 5653 5650 5648 5647 5645 5644 5642 5640 5639 5639 5638 5637 5637 5637 5636 5636 5635 5635 5635 5634 5634 5633 5633 5632 5632 5632 5632 5632 5633 5633 5634 5634 5635 5635 5635 5635
5713 5714 5714 5714 5714 5714 5714 5714 5714 5714 5714 5713 5713 5712 5711 5710 5710 5709 5709 5708 5707 5705 5704 5703 5701 5700 5698 5696 5694 5693 5691 5690 5689 5687 5686 5685 5683 5681 5680 5678 5675 5673 5671 5668 5665 5663 5660 5657 5654 5652 5649 5647 5645 5644 5642 5640 5639 5637 5636 5635 5635 5634 5634 5633 5632 5632 5631 5631 5630 5630 5629 5628 5627 5626 5626 5625 5625 5625 5625 5626 5627 5627 5628 5628 5629 5629 5629
5711 5711 5711 5711 5710 5710 5710 5710 5710 5710 5710 5710 5709 5708 5707 5707 5706 5705 5704 5703 5702 5701 5699 5698 5696 5694 5693 5691 5689 5688 5686 5685 5684 5683 5681 5680 5678 5677 5675 5673 5671 5668 5666 5663 5660 5657 5655 5652 5649 5647 5644 5642 5641 5639 5637 5636 5635 5633 5632 5632 5631 5631 5630 5629 5628 5628 5627 5626 5625 5624 5623 5622 5621 5620 5620 5619 5619 5619 5620 5620 5621 5622 5622 5623 5623 5624 5624
5707 5707 5707 5707 5707 5707 5707 5707 5707 5707 5706 5706 5705 5704 5704 5703 5702 5701 5700 5698 5697 5696 5694 5692 5691 5689 5688 5686 5684 5683 5682 5681 5679 5678 5677 5675 5674 5672 5671 5669 5666 5664 5662 5659 5656 5653 5650 5648 5645 5643 5640 5638 5636 5635 5633 5632 5631 5630 5629 5628 5627 5627 5626 5625 5624 5624 5623 5622 5621 5620 5619 5617 5616 5615 5615 5615 5615 5616 5616 5616 5617 5617 5618 5619 5619 5619 5619